Location: Eexterzandvoort
(53.0303°N, 6.7884°E)
Time: 17:21:48
(UTC+00:00)

ARIANE 6 FM1 Upper Stage - Pass Details

Date: 19 May 2025
Orbit: 531 x 610 km, 62.0° (Epoch: 16 June)

Event Time Altitude Azimuth Distance (km) Brightness Sun altitude
Rises 21:57:30 0° 252° (WSW) 2,671 6.2 -14.3°
Reaches altitude 10° 21:59:46 10° 259° (W) 1,786 5.4 -14.5°
Maximum altitude 22:03:36 42° 332° (NNW) 772 3.9 -14.7°
Drops below altitude 10° 22:07:30 10° 45° (NE) 1,817 5.6 -14.9°
Sets 22:09:49 0° 52° (NE) 2,724 6.4 -15.0°
